owner,sensor,date,latitude,longitude,vertical_datum,wind_speed,wind_to_direction,wind_speed_of_gust,qcFlag 
COMPS,ioos:station:USF.COMPS:SHP:1,2017-12-01T00:00:00Z,30.0600,-84.2910,10.0,1.61,269.86,2.15,'1111122,1111122,1111122' 
COMPS,ioos:station:USF.COMPS:SHP:1,2017-12-01T00:06:00Z,30.0600,-84.2910,10.0,1.44,270.83,1.96,'1111122,1111122,1111122' 
COMPS,ioos:station:USF.COMPS:SHP:1,2017-12-01T00:12:00Z,30.0600,-84.2910,10.0,1.61,269.77,1.96,'1111122,1111122,1111122' 
COMPS,ioos:station:USF.COMPS:SHP:1,2017-12-01T00:18:00Z,30.0600,-84.2910,10.0,1.24,269.25,1.96,'1111122,1111122,1111122' 
COMPS,ioos:station:USF.COMPS:SHP:1,2017-12-01T00:24:00Z,30.0600,-84.2910,10.0,1.33,270.64,1.66,'1111122,1111122,1111122' 
COMPS,ioos:station:USF.COMPS:SHP:1,2017-12-01T00:30:00Z,30.0600,-84.2910,10.0,1.32,269.5,1.66,'1111122,1111122,1111122' 
COMPS,ioos:station:USF.COMPS:SHP:1,2017-12-01T00:36:00Z,30.0600,-84.2910,10.0,1.17,260.1,1.56,'1111122,1111122,1111122' 
COMPS,ioos:station:USF.COMPS:SHP:1,2017-12-01T00:42:00Z,30.0600,-84.2910,10.0,0.98,233.26,1.17,'1111122,1111122,1111122' 
COMPS,ioos:station:USF.COMPS:SHP:1,2017-12-01T00:48:00Z,30.0600,-84.2910,10.0,0.75,225.35,0.97,'1111122,1111122,1111122' 
COMPS,ioos:station:USF.COMPS:SHP:1,2017-12-01T00:54:00Z,30.0600,-84.2910,10.0,0.81,232.77,1.07,'1111122,1111122,1111122' 
COMPS,ioos:station:USF.COMPS:SHP:1,2017-12-01T01:00:00Z,30.0600,-84.2910,10.0,0.85,236.39,1.17,'1111122,1111122,1111122' 
COMPS,ioos:station:USF.COMPS:SHP:1,2017-12-01T01:06:00Z,30.0600,-84.2910,10.0,0.47,232.77,0.68,'1111122,1111122,1111122' 
COMPS,ioos:station:USF.COMPS:SHP:1,2017-12-01T01:12:00Z,30.0600,-84.2910,10.0,0.53,242.37,0.68,'1111122,1111122,1111122' 
COMPS,ioos:station:USF.COMPS:SHP:1,2017-12-01T01:18:00Z,30.0600,-84.2910,10.0,0.71,263.1,1.27,'1111122,1111122,1111122' 
COMPS,ioos:station:USF.COMPS:SHP:1,2017-12-01T01:24:00Z,30.0600,-84.2910,10.0,1.33,286.67,1.86,'1111122,1111122,1111122' 
COMPS,ioos:station:USF.COMPS:SHP:1,2017-12-01T01:30:00Z,30.0600,-84.2910,10.0,1.5,276.01,1.76,'1111122,1111122,1111122' 
COMPS,ioos:station:USF.COMPS:SHP:1,2017-12-01T01:36:00Z,30.0600,-84.2910,10.0,1.55,285.68,2.15,'1111122,1111122,1111122' 
COMPS,ioos:station:USF.COMPS:SHP:1,2017-12-01T01:42:00Z,30.0600,-84.2910,10.0,1.46,287.48,2.05,'1111122,1111122,1111122' 
COMPS,ioos:station:USF.COMPS:SHP:1,2017-12-01T01:48:00Z,30.0600,-84.2910,10.0,1.3,294.39,2.05,'1111122,1111122,1111122' 
COMPS,ioos:station:USF.COMPS:SHP:1,2017-12-01T01:54:00Z,30.0600,-84.2910,10.0,1.14,298.25,1.76,'1111122,1111122,1111122' 
COMPS,ioos:station:USF.COMPS:SHP:1,2017-12-01T02:00:00Z,30.0600,-84.2910,10.0,0.4,290.95,1.17,'1111122,1111122,1111122' 
COMPS,ioos:station:USF.COMPS:SHP:1,2017-12-01T02:06:00Z,30.0600,-84.2910,10.0,0.74,285.45,1.27,'1111122,1111122,1111122' 
COMPS,ioos:station:USF.COMPS:SHP:1,2017-12-01T02:12:00Z,30.0600,-84.2910,10.0,0.84,292.17,1.37,'1111122,1111122,1111122' 
COMPS,ioos:station:USF.COMPS:SHP:1,2017-12-01T02:18:00Z,30.0600,-84.2910,10.0,1.03,297.87,1.66,'1111122,1111122,1111122' 
COMPS,ioos:station:USF.COMPS:SHP:1,2017-12-01T02:24:00Z,30.0600,-84.2910,10.0,1.17,293.99,1.66,'1111122,1111122,1111122' 
COMPS,ioos:station:USF.COMPS:SHP:1,2017-12-01T02:30:00Z,30.0600,-84.2910,10.0,1.09,288.26,1.66,'1111122,1111122,1111122' 
COMPS,ioos:station:USF.COMPS:SHP:1,2017-12-01T02:36:00Z,30.0600,-84.2910,10.0,1.29,292.25,1.76,'1111122,1111122,1111122' 
COMPS,ioos:station:USF.COMPS:SHP:1,2017-12-01T02:42:00Z,30.0600,-84.2910,10.0,1.06,302.04,1.76,'1111122,1111122,1111122' 
COMPS,ioos:station:USF.COMPS:SHP:1,2017-12-01T02:48:00Z,30.0600,-84.2910,10.0,0.59,289.04,1.07,'1111122,1111122,1111122' 
COMPS,ioos:station:USF.COMPS:SHP:1,2017-12-01T02:54:00Z,30.0600,-84.2910,10.0,0.67,296.79,0.97,'1111122,1111122,1111122' 
COMPS,ioos:station:USF.COMPS:SHP:1,2017-12-01T03:00:00Z,30.0600,-84.2910,10.0,1.0,303.27,1.37,'1111122,1111122,1111122' 
COMPS,ioos:station:USF.COMPS:SHP:1,2017-12-01T03:06:00Z,30.0600,-84.2910,10.0,0.88,284.85,1.17,'1111122,1111122,1111122' 
COMPS,ioos:station:USF.COMPS:SHP:1,2017-12-01T03:12:00Z,30.0600,-84.2910,10.0,0.95,282.8,1.17,'1111122,1111122,1111122' 
COMPS,ioos:station:USF.COMPS:SHP:1,2017-12-01T03:18:00Z,30.0600,-84.2910,10.0,0.82,268.16,1.37,'1111122,1111122,1111122' 
COMPS,ioos:station:USF.COMPS:SHP:1,2017-12-01T03:24:00Z,30.0600,-84.2910,10.0,0.47,245.08,0.78,'1111122,1111122,1111122' 
COMPS,ioos:station:USF.COMPS:SHP:1,2017-12-01T03:30:00Z,30.0600,-84.2910,10.0,0.21,249.7,0.58,'1111122,1111122,1111122' 
COMPS,ioos:station:USF.COMPS:SHP:1,2017-12-01T03:36:00Z,30.0600,-84.2910,10.0,0.81,285.64,1.07,'1111122,1111122,1111122' 
COMPS,ioos:station:USF.COMPS:SHP:1,2017-12-01T03:42:00Z,30.0600,-84.2910,10.0,0.66,268.58,0.88,'1111122,1111122,1111122' 
COMPS,ioos:station:USF.COMPS:SHP:1,2017-12-01T03:48:00Z,30.0600,-84.2910,10.0,0.78,272.9,1.17,'1111122,1111122,1111122' 
COMPS,ioos:station:USF.COMPS:SHP:1,2017-12-01T03:54:00Z,30.0600,-84.2910,10.0,1.04,279.97,1.37,'1111122,1111122,1111122' 
COMPS,ioos:station:USF.COMPS:SHP:1,2017-12-01T04:00:00Z,30.0600,-84.2910,10.0,1.29,298.08,1.66,'1111122,1111122,1111122' 
COMPS,ioos:station:USF.COMPS:SHP:1,2017-12-01T04:06:00Z,30.0600,-84.2910,10.0,2.36,308.09,3.52,'1111122,1111122,1111122' 
COMPS,ioos:station:USF.COMPS:SHP:1,2017-12-01T04:12:00Z,30.0600,-84.2910,10.0,2.6,307.37,3.33,'1111122,1111122,1111122' 
COMPS,ioos:station:USF.COMPS:SHP:1,2017-12-01T04:18:00Z,30.0600,-84.2910,10.0,2.37,306.5,3.03,'1111122,1111122,1111122' 
COMPS,ioos:station:USF.COMPS:SHP:1,2017-12-01T04:24:00Z,30.0600,-84.2910,10.0,2.45,305.83,2.84,'1111122,1111122,1111122' 
COMPS,ioos:station:USF.COMPS:SHP:1,2017-12-01T04:30:00Z,30.0600,-84.2910,10.0,2.25,305.64,3.03,'1111122,1111122,1111122' 
COMPS,ioos:station:USF.COMPS:SHP:1,2017-12-01T04:36:00Z,30.0600,-84.2910,10.0,2.64,310.81,3.52,'1111122,1111122,1111122' 
COMPS,ioos:station:USF.COMPS:SHP:1,2017-12-01T04:42:00Z,30.0600,-84.2910,10.0,2.74,310.79,3.82,'1111122,1111122,1111122' 
COMPS,ioos:station:USF.COMPS:SHP:1,2017-12-01T04:48:00Z,30.0600,-84.2910,10.0,2.2,306.75,2.74,'1111122,1111122,1111122' 
COMPS,ioos:station:USF.COMPS:SHP:1,2017-12-01T04:54:00Z,30.0600,-84.2910,10.0,1.72,304.0,2.35,'1111122,1111122,1111122' 
COMPS,ioos:station:USF.COMPS:SHP:1,2017-12-01T05:00:00Z,30.0600,-84.2910,10.0,1.82,309.32,2.64,'1111122,1111122,1111122' 
COMPS,ioos:station:USF.COMPS:SHP:1,2017-12-01T05:06:00Z,30.0600,-84.2910,10.0,1.78,306.2,2.25,'1111122,1111122,1111122' 
COMPS,ioos:station:USF.COMPS:SHP:1,2017-12-01T05:12:00Z,30.0600,-84.2910,10.0,1.6,301.2,2.15,'1111122,1111122,1111122' 
COMPS,ioos:station:USF.COMPS:SHP:1,2017-12-01T05:18:00Z,30.0600,-84.2910,10.0,1.72,301.81,2.64,'1111122,1111122,1111122' 
COMPS,ioos:station:USF.COMPS:SHP:1,2017-12-01T05:24:00Z,30.0600,-84.2910,10.0,1.68,295.3,2.25,'1111122,1111122,1111122' 
COMPS,ioos:station:USF.COMPS:SHP:1,2017-12-01T05:30:00Z,30.0600,-84.2910,10.0,1.67,300.9,2.45,'1111122,1111122,1111122' 
COMPS,ioos:station:USF.COMPS:SHP:1,2017-12-01T05:36:00Z,30.0600,-84.2910,10.0,1.25,302.9,1.86,'1111122,1111122,1111122' 
COMPS,ioos:station:USF.COMPS:SHP:1,2017-12-01T05:42:00Z,30.0600,-84.2910,10.0,1.47,297.69,2.25,'1111122,1111122,1111122' 
COMPS,ioos:station:USF.COMPS:SHP:1,2017-12-01T05:48:00Z,30.0600,-84.2910,10.0,1.67,291.69,2.25,'1111122,1111122,1111122' 
COMPS,ioos:station:USF.COMPS:SHP:1,2017-12-01T05:54:00Z,30.0600,-84.2910,10.0,1.42,305.17,2.05,'1111122,1111122,1111122' 
COMPS,ioos:station:USF.COMPS:SHP:1,2017-12-01T06:00:00Z,30.0600,-84.2910,10.0,1.43,309.26,2.05,'1111122,1111122,1111122' 
COMPS,ioos:station:USF.COMPS:SHP:1,2017-12-01T06:06:00Z,30.0600,-84.2910,10.0,1.11,328.05,1.56,'1111122,1111122,1111122' 
COMPS,ioos:station:USF.COMPS:SHP:1,2017-12-01T06:12:00Z,30.0600,-84.2910,10.0,0.57,348.62,0.97,'1111122,1111122,1111122' 
COMPS,ioos:station:USF.COMPS:SHP:1,2017-12-01T06:18:00Z,30.0600,-84.2910,10.0,0.39,347.7,0.58,'1111122,1111122,1111122' 
COMPS,ioos:station:USF.COMPS:SHP:1,2017-12-01T06:24:00Z,30.0600,-84.2910,10.0,0.6,323.42,1.17,'1111122,1111122,1111122' 
COMPS,ioos:station:USF.COMPS:SHP:1,2017-12-01T06:30:00Z,30.0600,-84.2910,10.0,1.09,313.99,1.47,'1111122,1111122,1111122' 
COMPS,ioos:station:USF.COMPS:SHP:1,2017-12-01T06:36:00Z,30.0600,-84.2910,10.0,1.38,311.15,1.66,'1111122,1111122,1111122' 
COMPS,ioos:station:USF.COMPS:SHP:1,2017-12-01T06:42:00Z,30.0600,-84.2910,10.0,1.41,318.64,1.86,'1111122,1111122,1111122' 
COMPS,ioos:station:USF.COMPS:SHP:1,2017-12-01T06:48:00Z,30.0600,-84.2910,10.0,1.28,313.82,1.86,'1111122,1111122,1111122' 
COMPS,ioos:station:USF.COMPS:SHP:1,2017-12-01T06:54:00Z,30.0600,-84.2910,10.0,1.32,308.57,1.66,'1111122,1111122,1111122' 
COMPS,ioos:station:USF.COMPS:SHP:1,2017-12-01T07:00:00Z,30.0600,-84.2910,10.0,1.37,308.22,1.66,'1111122,1111122,1111122' 
COMPS,ioos:station:USF.COMPS:SHP:1,2017-12-01T07:06:00Z,30.0600,-84.2910,10.0,1.46,309.59,1.86,'1111122,1111122,1111122' 
COMPS,ioos:station:USF.COMPS:SHP:1,2017-12-01T07:12:00Z,30.0600,-84.2910,10.0,1.05,315.26,1.47,'1111122,1111122,1111122' 
COMPS,ioos:station:USF.COMPS:SHP:1,2017-12-01T07:18:00Z,30.0600,-84.2910,10.0,0.34,327.82,0.68,'1111122,1111122,1111122' 
COMPS,ioos:station:USF.COMPS:SHP:1,2017-12-01T07:24:00Z,30.0600,-84.2910,10.0,0.39,328.54,0.68,'1111122,1111122,1111122' 
COMPS,ioos:station:USF.COMPS:SHP:1,2017-12-01T07:30:00Z,30.0600,-84.2910,10.0,0.36,357.74,0.58,'1111122,1111122,1111122' 
COMPS,ioos:station:USF.COMPS:SHP:1,2017-12-01T07:36:00Z,30.0600,-84.2910,10.0,0.11,354.63,0.19,'1111122,1111122,1111122' 
COMPS,ioos:station:USF.COMPS:SHP:1,2017-12-01T07:42:00Z,30.0600,-84.2910,10.0,0.09,354.62,0.09,'1111122,1111122,1111122' 
COMPS,ioos:station:USF.COMPS:SHP:1,2017-12-01T07:48:00Z,30.0600,-84.2910,10.0,0.38,77.68,0.78,'1111122,1111122,1111122' 
COMPS,ioos:station:USF.COMPS:SHP:1,2017-12-01T07:54:00Z,30.0600,-84.2910,10.0,0.75,99.92,1.07,'1111122,1111122,1111122' 
COMPS,ioos:station:USF.COMPS:SHP:1,2017-12-01T08:00:00Z,30.0600,-84.2910,10.0,1.11,103.21,1.37,'1111122,1111122,1111122' 
COMPS,ioos:station:USF.COMPS:SHP:1,2017-12-01T08:06:00Z,30.0600,-84.2910,10.0,1.12,110.3,1.37,'1111122,1111122,1111122' 
COMPS,ioos:station:USF.COMPS:SHP:1,2017-12-01T08:12:00Z,30.0600,-84.2910,10.0,1.04,107.79,1.56,'1111122,1111122,1111122' 
COMPS,ioos:station:USF.COMPS:SHP:1,2017-12-01T08:18:00Z,30.0600,-84.2910,10.0,1.51,105.46,1.96,'1111122,1111122,1111122' 
COMPS,ioos:station:USF.COMPS:SHP:1,2017-12-01T08:24:00Z,30.0600,-84.2910,10.0,1.55,110.1,2.05,'1111122,1111122,1111122' 
COMPS,ioos:station:USF.COMPS:SHP:1,2017-12-01T08:30:00Z,30.0600,-84.2910,10.0,1.09,102.87,1.66,'1111122,1111122,1111122' 
COMPS,ioos:station:USF.COMPS:SHP:1,2017-12-01T08:36:00Z,30.0600,-84.2910,10.0,0.85,91.08,1.37,'1111122,1111122,1111122' 
COMPS,ioos:station:USF.COMPS:SHP:1,2017-12-01T08:42:00Z,30.0600,-84.2910,10.0,0.66,69.35,1.37,'1111122,1111122,1111122' 
COMPS,ioos:station:USF.COMPS:SHP:1,2017-12-01T08:48:00Z,30.0600,-84.2910,10.0,0.5,48.05,0.97,'1111122,1111122,1111122' 
COMPS,ioos:station:USF.COMPS:SHP:1,2017-12-01T08:54:00Z,30.0600,-84.2910,10.0,0.32,27.93,0.68,'1111122,1111122,1111122' 
COMPS,ioos:station:USF.COMPS:SHP:1,2017-12-01T09:00:00Z,30.0600,-84.2910,10.0,0.55,69.22,0.88,'1111122,1111122,1111122' 
COMPS,ioos:station:USF.COMPS:SHP:1,2017-12-01T09:06:00Z,30.0600,-84.2910,10.0,0.99,100.07,1.37,'1111122,1111122,1111122' 
COMPS,ioos:station:USF.COMPS:SHP:1,2017-12-01T09:12:00Z,30.0600,-84.2910,10.0,0.99,98.54,1.56,'1111122,1111122,1111122' 
COMPS,ioos:station:USF.COMPS:SHP:1,2017-12-01T09:18:00Z,30.0600,-84.2910,10.0,0.28,35.63,0.88,'1111122,1111122,1111122' 
COMPS,ioos:station:USF.COMPS:SHP:1,2017-12-01T09:24:00Z,30.0600,-84.2910,10.0,1.32,119.11,2.15,'1111122,1111122,1111122' 
COMPS,ioos:station:USF.COMPS:SHP:1,2017-12-01T09:30:00Z,30.0600,-84.2910,10.0,1.89,132.58,2.54,'1111122,1111122,1111122' 
COMPS,ioos:station:USF.COMPS:SHP:1,2017-12-01T09:36:00Z,30.0600,-84.2910,10.0,2.16,132.52,2.74,'1111122,1111122,1111122' 
COMPS,ioos:station:USF.COMPS:SHP:1,2017-12-01T09:42:00Z,30.0600,-84.2910,10.0,0.91,131.38,1.76,'1111122,1111122,1111122' 
COMPS,ioos:station:USF.COMPS:SHP:1,2017-12-01T09:48:00Z,30.0600,-84.2910,10.0,1.02,121.09,1.66,'1111122,1111122,1111122' 
COMPS,ioos:station:USF.COMPS:SHP:1,2017-12-01T09:54:00Z,30.0600,-84.2910,10.0,0.85,128.89,1.76,'1111122,1111122,1111122' 
COMPS,ioos:station:USF.COMPS:SHP:1,2017-12-01T10:00:00Z,30.0600,-84.2910,10.0,1.05,125.42,2.25,'1111122,1111122,1111122' 
COMPS,ioos:station:USF.COMPS:SHP:1,2017-12-01T10:06:00Z,30.0600,-84.2910,10.0,1.66,131.01,2.15,'1111122,1111122,1111122' 
COMPS,ioos:station:USF.COMPS:SHP:1,2017-12-01T10:12:00Z,30.0600,-84.2910,10.0,1.26,135.52,1.76,'1111122,1111122,1111122' 
COMPS,ioos:station:USF.COMPS:SHP:1,2017-12-01T10:18:00Z,30.0600,-84.2910,10.0,1.35,142.54,1.76,'1111122,1111122,1111122' 
COMPS,ioos:station:USF.COMPS:SHP:1,2017-12-01T10:24:00Z,30.0600,-84.2910,10.0,1.38,141.8,1.76,'1111122,1111122,1111122' 
COMPS,ioos:station:USF.COMPS:SHP:1,2017-12-01T10:30:00Z,30.0600,-84.2910,10.0,0.98,133.5,1.96,'1111122,1111122,1111122' 
COMPS,ioos:station:USF.COMPS:SHP:1,2017-12-01T10:36:00Z,30.0600,-84.2910,10.0,1.32,139.18,1.86,'1111122,1111122,1111122' 
COMPS,ioos:station:USF.COMPS:SHP:1,2017-12-01T10:42:00Z,30.0600,-84.2910,10.0,1.41,149.59,1.86,'1111122,1111122,1111122' 
COMPS,ioos:station:USF.COMPS:SHP:1,2017-12-01T10:48:00Z,30.0600,-84.2910,10.0,1.32,161.03,2.05,'1111122,1111122,1111122' 
COMPS,ioos:station:USF.COMPS:SHP:1,2017-12-01T10:54:00Z,30.0600,-84.2910,10.0,0.15,191.4,0.58,'1111122,1111122,1111122' 
COMPS,ioos:station:USF.COMPS:SHP:1,2017-12-01T11:00:00Z,30.0600,-84.2910,10.0,0.32,150.86,0.78,'1111122,1111122,1111122' 
COMPS,ioos:station:USF.COMPS:SHP:1,2017-12-01T11:06:00Z,30.0600,-84.2910,10.0,0.87,149.98,1.56,'1111122,1111122,1111122' 
COMPS,ioos:station:USF.COMPS:SHP:1,2017-12-01T11:12:00Z,30.0600,-84.2910,10.0,1.07,163.26,1.37,'1111122,1111122,1111122' 
COMPS,ioos:station:USF.COMPS:SHP:1,2017-12-01T11:18:00Z,30.0600,-84.2910,10.0,1.02,162.89,1.47,'1111122,1111122,1111122' 
COMPS,ioos:station:USF.COMPS:SHP:1,2017-12-01T11:24:00Z,30.0600,-84.2910,10.0,1.31,162.68,1.66,'1111122,1111122,1111122' 
COMPS,ioos:station:USF.COMPS:SHP:1,2017-12-01T11:30:00Z,30.0600,-84.2910,10.0,1.07,167.67,1.37,'1111122,1111122,1111122' 
COMPS,ioos:station:USF.COMPS:SHP:1,2017-12-01T11:36:00Z,30.0600,-84.2910,10.0,0.64,170.27,1.27,'1111122,1111122,1111122' 
COMPS,ioos:station:USF.COMPS:SHP:1,2017-12-01T11:42:00Z,30.0600,-84.2910,10.0,0.52,165.46,0.88,'1111122,1111122,1111122' 
COMPS,ioos:station:USF.COMPS:SHP:1,2017-12-01T11:48:00Z,30.0600,-84.2910,10.0,0.95,164.58,1.76,'1111122,1111122,1111122' 
COMPS,ioos:station:USF.COMPS:SHP:1,2017-12-01T11:54:00Z,30.0600,-84.2910,10.0,1.48,169.03,1.66,'1111122,1111122,1111122' 
COMPS,ioos:station:USF.COMPS:SHP:1,2017-12-01T12:00:00Z,30.0600,-84.2910,10.0,1.7,156.58,1.96,'1111122,1111122,1111122' 
COMPS,ioos:station:USF.COMPS:SHP:1,2017-12-01T12:06:00Z,30.0600,-84.2910,10.0,1.49,156.71,1.86,'1111122,1111122,1111122' 
COMPS,ioos:station:USF.COMPS:SHP:1,2017-12-01T12:12:00Z,30.0600,-84.2910,10.0,1.28,149.39,1.76,'1111122,1111122,1111122' 
COMPS,ioos:station:USF.COMPS:SHP:1,2017-12-01T12:18:00Z,30.0600,-84.2910,10.0,0.97,153.09,1.17,'1111122,1111122,1111122' 
COMPS,ioos:station:USF.COMPS:SHP:1,2017-12-01T12:24:00Z,30.0600,-84.2910,10.0,0.97,156.18,1.37,'1111122,1111122,1111122' 
COMPS,ioos:station:USF.COMPS:SHP:1,2017-12-01T12:30:00Z,30.0600,-84.2910,10.0,0.45,123.29,0.88,'1111122,1111122,1111122' 
COMPS,ioos:station:USF.COMPS:SHP:1,2017-12-01T12:36:00Z,30.0600,-84.2910,10.0,0.2,90.93,0.58,'1111122,1111122,1111122' 
COMPS,ioos:station:USF.COMPS:SHP:1,2017-12-01T12:42:00Z,30.0600,-84.2910,10.0,0.3,76.82,0.58,'1111122,1111122,1111122' 
COMPS,ioos:station:USF.COMPS:SHP:1,2017-12-01T12:48:00Z,30.0600,-84.2910,10.0,0.4,34.69,0.58,'1111122,1111122,1111122' 
COMPS,ioos:station:USF.COMPS:SHP:1,2017-12-01T12:54:00Z,30.0600,-84.2910,10.0,0.31,66.65,0.58,'1111122,1111122,1111122' 
COMPS,ioos:station:USF.COMPS:SHP:1,2017-12-01T13:00:00Z,30.0600,-84.2910,10.0,0.32,111.97,0.58,'1111122,1111122,1111122' 
COMPS,ioos:station:USF.COMPS:SHP:1,2017-12-01T13:06:00Z,30.0600,-84.2910,10.0,0.26,120.41,0.58,'1111122,1111122,1111122' 
COMPS,ioos:station:USF.COMPS:SHP:1,2017-12-01T13:12:00Z,30.0600,-84.2910,10.0,0.46,115.01,0.78,'1111122,1111122,1111122' 
COMPS,ioos:station:USF.COMPS:SHP:1,2017-12-01T13:18:00Z,30.0600,-84.2910,10.0,0.31,84.53,0.68,'1111122,1111122,1111122' 
COMPS,ioos:station:USF.COMPS:SHP:1,2017-12-01T13:24:00Z,30.0600,-84.2910,10.0,0.26,83.41,0.49,'1111122,1111122,1111122' 
COMPS,ioos:station:USF.COMPS:SHP:1,2017-12-01T13:30:00Z,30.0600,-84.2910,10.0,0.89,102.95,1.27,'1111122,1111122,1111122' 
COMPS,ioos:station:USF.COMPS:SHP:1,2017-12-01T13:36:00Z,30.0600,-84.2910,10.0,0.95,107.17,1.76,'1111122,1111122,1111122' 
COMPS,ioos:station:USF.COMPS:SHP:1,2017-12-01T13:42:00Z,30.0600,-84.2910,10.0,1.12,102.99,1.86,'1111122,1111122,1111122' 
COMPS,ioos:station:USF.COMPS:SHP:1,2017-12-01T13:48:00Z,30.0600,-84.2910,10.0,1.17,107.22,1.76,'1111122,1111122,1111122' 
COMPS,ioos:station:USF.COMPS:SHP:1,2017-12-01T13:54:00Z,30.0600,-84.2910,10.0,1.14,119.51,1.86,'1111122,1111122,1111122' 
COMPS,ioos:station:USF.COMPS:SHP:1,2017-12-01T14:00:00Z,30.0600,-84.2910,10.0,1.42,123.6,1.76,'1111122,1111122,1111122' 
COMPS,ioos:station:USF.COMPS:SHP:1,2017-12-01T14:06:00Z,30.0600,-84.2910,10.0,1.47,128.48,1.86,'1111122,1111122,1111122' 
COMPS,ioos:station:USF.COMPS:SHP:1,2017-12-01T14:12:00Z,30.0600,-84.2910,10.0,1.84,127.83,2.35,'1111122,1111122,1111122' 
COMPS,ioos:station:USF.COMPS:SHP:1,2017-12-01T14:18:00Z,30.0600,-84.2910,10.0,1.69,128.27,2.15,'1111122,1111122,1111122' 
COMPS,ioos:station:USF.COMPS:SHP:1,2017-12-01T14:24:00Z,30.0600,-84.2910,10.0,1.77,128.2,2.35,'1111122,1111122,1111122' 
COMPS,ioos:station:USF.COMPS:SHP:1,2017-12-01T14:30:00Z,30.0600,-84.2910,10.0,1.48,129.7,2.05,'1111122,1111122,1111122' 
COMPS,ioos:station:USF.COMPS:SHP:1,2017-12-01T14:36:00Z,30.0600,-84.2910,10.0,1.67,130.87,2.15,'1111122,1111122,1111122' 
COMPS,ioos:station:USF.COMPS:SHP:1,2017-12-01T14:42:00Z,30.0600,-84.2910,10.0,1.88,133.66,2.84,'1111122,1111122,1111122' 
COMPS,ioos:station:USF.COMPS:SHP:1,2017-12-01T14:48:00Z,30.0600,-84.2910,10.0,2.05,137.46,2.45,'1111122,1111122,1111122' 
COMPS,ioos:station:USF.COMPS:SHP:1,2017-12-01T14:54:00Z,30.0600,-84.2910,10.0,2.59,145.65,2.94,'1111122,1111122,1111122' 
COMPS,ioos:station:USF.COMPS:SHP:1,2017-12-01T15:00:00Z,30.0600,-84.2910,10.0,2.45,143.47,3.03,'1111122,1111122,1111122' 
COMPS,ioos:station:USF.COMPS:SHP:1,2017-12-01T15:06:00Z,30.0600,-84.2910,10.0,2.55,143.79,3.03,'1111122,1111122,1111122' 
COMPS,ioos:station:USF.COMPS:SHP:1,2017-12-01T15:12:00Z,30.0600,-84.2910,10.0,2.81,152.79,3.23,'1111122,1111122,1111122' 
COMPS,ioos:station:USF.COMPS:SHP:1,2017-12-01T15:18:00Z,30.0600,-84.2910,10.0,2.97,154.0,3.33,'1111122,1111122,1111122' 
COMPS,ioos:station:USF.COMPS:SHP:1,2017-12-01T15:24:00Z,30.0600,-84.2910,10.0,2.62,151.0,3.03,'1111122,1111122,1111122' 
COMPS,ioos:station:USF.COMPS:SHP:1,2017-12-01T15:30:00Z,30.0600,-84.2910,10.0,2.24,147.21,2.64,'1111122,1111122,1111122' 
COMPS,ioos:station:USF.COMPS:SHP:1,2017-12-01T15:36:00Z,30.0600,-84.2910,10.0,2.02,145.47,2.45,'1111122,1111122,1111122' 
COMPS,ioos:station:USF.COMPS:SHP:1,2017-12-01T15:42:00Z,30.0600,-84.2910,10.0,1.6,149.68,2.05,'1111122,1111122,1111122' 
COMPS,ioos:station:USF.COMPS:SHP:1,2017-12-01T15:48:00Z,30.0600,-84.2910,10.0,1.39,161.92,1.96,'1111122,1111122,1111122' 
COMPS,ioos:station:USF.COMPS:SHP:1,2017-12-01T15:54:00Z,30.0600,-84.2910,10.0,0.72,196.35,1.17,'1111122,1111122,1111122' 
COMPS,ioos:station:USF.COMPS:SHP:1,2017-12-01T16:00:00Z,30.0600,-84.2910,10.0,0.68,221.17,1.07,'1111122,1111122,1111122' 
COMPS,ioos:station:USF.COMPS:SHP:1,2017-12-01T16:06:00Z,30.0600,-84.2910,10.0,0.83,225.91,1.37,'1111122,1111122,1111122' 
COMPS,ioos:station:USF.COMPS:SHP:1,2017-12-01T16:12:00Z,30.0600,-84.2910,10.0,0.76,221.57,1.07,'1111122,1111122,1111122' 
COMPS,ioos:station:USF.COMPS:SHP:1,2017-12-01T16:18:00Z,30.0600,-84.2910,10.0,0.86,185.56,1.56,'1111122,1111122,1111122' 
COMPS,ioos:station:USF.COMPS:SHP:1,2017-12-01T16:24:00Z,30.0600,-84.2910,10.0,0.63,167.79,1.07,'1111122,1111122,1111122' 
COMPS,ioos:station:USF.COMPS:SHP:1,2017-12-01T16:30:00Z,30.0600,-84.2910,10.0,0.82,158.58,1.27,'1111122,1111122,1111122' 
COMPS,ioos:station:USF.COMPS:SHP:1,2017-12-01T16:36:00Z,30.0600,-84.2910,10.0,1.5,144.5,2.35,'1111122,1111122,1111122' 
COMPS,ioos:station:USF.COMPS:SHP:1,2017-12-01T16:42:00Z,30.0600,-84.2910,10.0,1.7,141.71,2.25,'1111122,1111122,1111122' 
COMPS,ioos:station:USF.COMPS:SHP:1,2017-12-01T16:48:00Z,30.0600,-84.2910,10.0,1.56,137.88,2.25,'1111122,1111122,1111122' 
COMPS,ioos:station:USF.COMPS:SHP:1,2017-12-01T16:54:00Z,30.0600,-84.2910,10.0,2.31,144.0,2.84,'1111122,1111122,1111122' 
COMPS,ioos:station:USF.COMPS:SHP:1,2017-12-01T17:00:00Z,30.0600,-84.2910,10.0,2.1,136.51,2.54,'1111122,1111122,1111122' 
COMPS,ioos:station:USF.COMPS:SHP:1,2017-12-01T17:06:00Z,30.0600,-84.2910,10.0,1.87,131.52,2.25,'1111122,1111122,1111122' 
COMPS,ioos:station:USF.COMPS:SHP:1,2017-12-01T17:12:00Z,30.0600,-84.2910,10.0,1.94,126.8,2.45,'1111122,1111122,1111122' 
COMPS,ioos:station:USF.COMPS:SHP:1,2017-12-01T17:18:00Z,30.0600,-84.2910,10.0,2.3,132.79,2.84,'1111122,1111122,1111122' 
COMPS,ioos:station:USF.COMPS:SHP:1,2017-12-01T17:24:00Z,30.0600,-84.2910,10.0,2.49,136.22,2.84,'1111122,1111122,1111122' 
COMPS,ioos:station:USF.COMPS:SHP:1,2017-12-01T17:30:00Z,30.0600,-84.2910,10.0,2.41,143.0,3.03,'1111122,1111122,1111122' 
COMPS,ioos:station:USF.COMPS:SHP:1,2017-12-01T17:36:00Z,30.0600,-84.2910,10.0,2.68,145.61,2.94,'1111122,1111122,1111122' 
COMPS,ioos:station:USF.COMPS:SHP:1,2017-12-01T17:42:00Z,30.0600,-84.2910,10.0,2.96,152.48,3.33,'1111122,1111122,1111122' 
COMPS,ioos:station:USF.COMPS:SHP:1,2017-12-01T17:48:00Z,30.0600,-84.2910,10.0,3.37,152.08,3.82,'1111122,1111122,1111122' 
COMPS,ioos:station:USF.COMPS:SHP:1,2017-12-01T17:54:00Z,30.0600,-84.2910,10.0,3.63,154.95,4.01,'1111122,1111122,1111122' 
COMPS,ioos:station:USF.COMPS:SHP:1,2017-12-01T18:00:00Z,30.0600,-84.2910,10.0,3.62,154.42,4.11,'1111122,1111122,1111122' 
COMPS,ioos:station:USF.COMPS:SHP:1,2017-12-01T18:06:00Z,30.0600,-84.2910,10.0,3.77,149.38,4.11,'1111122,1111122,1111122' 
COMPS,ioos:station:USF.COMPS:SHP:1,2017-12-01T18:12:00Z,30.0600,-84.2910,10.0,3.45,146.15,3.92,'1111122,1111122,1111122' 
COMPS,ioos:station:USF.COMPS:SHP:1,2017-12-01T18:18:00Z,30.0600,-84.2910,10.0,3.28,148.01,3.82,'1111122,1111122,1111122' 
COMPS,ioos:station:USF.COMPS:SHP:1,2017-12-01T18:24:00Z,30.0600,-84.2910,10.0,3.18,158.85,3.82,'1111122,1111122,1111122' 
COMPS,ioos:station:USF.COMPS:SHP:1,2017-12-01T18:30:00Z,30.0600,-84.2910,10.0,3.25,158.22,3.82,'1111122,1111122,1111122' 
COMPS,ioos:station:USF.COMPS:SHP:1,2017-12-01T18:36:00Z,30.0600,-84.2910,10.0,3.44,170.0,4.41,'1111122,1111122,1111122' 
COMPS,ioos:station:USF.COMPS:SHP:1,2017-12-01T18:42:00Z,30.0600,-84.2910,10.0,4.53,172.9,5.19,'1111122,1111122,1111122' 
COMPS,ioos:station:USF.COMPS:SHP:1,2017-12-01T18:48:00Z,30.0600,-84.2910,10.0,4.76,169.35,5.29,'1111122,1111122,1111122' 
COMPS,ioos:station:USF.COMPS:SHP:1,2017-12-01T18:54:00Z,30.0600,-84.2910,10.0,4.48,171.09,5.19,'1111122,1111122,1111122' 
COMPS,ioos:station:USF.COMPS:SHP:1,2017-12-01T19:00:00Z,30.0600,-84.2910,10.0,4.07,172.12,4.7,'1111122,1111122,1111122' 
COMPS,ioos:station:USF.COMPS:SHP:1,2017-12-01T19:06:00Z,30.0600,-84.2910,10.0,3.56,166.3,4.41,'1111122,1111122,1111122' 
COMPS,ioos:station:USF.COMPS:SHP:1,2017-12-01T19:12:00Z,30.0600,-84.2910,10.0,3.8,167.13,4.41,'1111122,1111122,1111122' 
COMPS,ioos:station:USF.COMPS:SHP:1,2017-12-01T19:18:00Z,30.0600,-84.2910,10.0,3.84,166.11,4.7,'1111122,1111122,1111122' 
COMPS,ioos:station:USF.COMPS:SHP:1,2017-12-01T19:24:00Z,30.0600,-84.2910,10.0,3.7,163.69,4.5,'1111122,1111122,1111122' 
COMPS,ioos:station:USF.COMPS:SHP:1,2017-12-01T19:30:00Z,30.0600,-84.2910,10.0,3.49,164.87,4.6,'1111122,1111122,1111122' 